Temperature
15 15 15 15 15 15 15 15 15 15 15 15 15 15 15 15 15 15 15 15 15 15 15 15 15 15 15 15 15 15 15 15 16 16 16 16 15 15 15 15 15 15 15
15 15 15 15 15 15 15 14 14 15 15 15 15 15 15 15 15 15 15 15 15 15 15 15 15 15 15 15 15 15 15 15 15 15 16 15 15 15 15 15 15 15 15
15 15 15 15 14 14 14 14 14 14 14 14 14 14 14 14 15 15 15 15 15 15 15 15 15 15 15 15 15 15 15 15 15 15 15 15 15 15 15 15 15 15 15
15 15 15 14 14 14 14 14 14 14 14 14 14 14 14 14 14 14 14 14 14 15 15 14 14 15 14 15 15 15 15 15 15 15 15 15 15 15 14 14 15 14 14
14 14 14 14 14 14 14 14 14 14 14 14 14 14 14 14 14 14 14 14 14 14 14 14 14 14 14 14 14 14 14 15 15 15 14 14 14 14 14 14 14 14 14
14 14 14 14 14 14 14 14 14 14 14 14 13 13 13 13 14 14 14 14 14 14 14 14 14 14 14 14 14 14 14 14 14 14 14 14 14 14 14 14 14 14 14
14 14 14 14 14 14 14 14 13 13 13 13 13 13 13 13 13 13 13 14 14 14 14 14 14 14 14 14 14 14 14 14 14 14 14 14 14 14 14 14 13 13 14
14 14 14 14 13 13 13 13 13 13 13 13 13 13 13 13 13 13 13 13 13 13 13 13 13 13 13 13 13 13 14 14 13 14 14 13 13 13 13 13 13 13 13
13 13 13 13 13 13 13 13 13 13 13 13 13 13 12 12 12 12 12 13 13 13 13 13 13 13 13 13 13 13 13 13 13 13 13 13 13 13 13 13 13 13 13
13 13 13 13 13 13 13 13 13 13 13 13 12 12 12 12 12 12 12 12 12 12 12 13 13 13 13 13 13 13 13 13 13 13 13 13 13 13 13 13 13 13 13
13 13 13 13 13 13 13 13 12 12 12 12 12 12 12 12 12 11 11 12 12 12 12 12 12 12 13 12 12 12 13 13 13 13 13 12 12 12 12 12 12 12 12
12 12 12 12 12 12 12 12 12 12 12 12 12 12 12 12 12 11 11 11 11 11 11 12 12 12 12 12 12 12 12 12 12 12 12 12 12 12 12 12 12 12 12
12 12 12 12 12 12 12 12 12 12 12 12 12 12 12 11 11 11 11 11 11 11 11 11 11 11 12 12 12 12 12 12 12 12 12 12 12 12 12 12 12 11 11
12 12 12 12 12 12 12 12 12 12 11 11 11 11 11 11 11 11 11 11 10 10 11 11 11 11 11 11 11 11 11 12 12 12 11 11 11 11 11 11 11 11 11
11 11 11 11 11 11 11 11 11 11 11 11 11 11 11 11 11 11 11 11 10 10 10 10 10 11 11 11 11 11 11 11 11 11 11 11 11 11 11 11 11 11 11
11 11 11 11 11 11 11 11 11 11 11 11 11 11 11 11 11 11 10 10 10 10 10 10 10 10 10 10 10 11 11 11 11 11 11 11 11 11 11 11 11 11 11
11 11 11 11 11 11 11 11 11 11 11 11 10 10 10 10 10 10 10 10 10 10 10 10 10 10 10 10 10 10 10 10 10 10 10 10 10 10 10 10 10 10 10
10 10 11 11 11 11 10 10 10 10 10 10 10 10 10 10 10 10 10 10 10 10 10 10 10 10 10 10 10 10 10 10 10 10 10 10 10 10 10 10 10 10 10
10 10 10 10 10 10 10 10 10 10 10 10 10 10 10 10 10 10 10 10 10 10 10 10 10 9 9 9 9 10 10 10 10 10 10 10 10 10 10 10 10 10 10
10 10 10 10 10 10 10 10 10 10 10 10 9 9 9 9 9 9 9 9 9 9 9 9 9 9 9 9 9 9 10 10 10 9 9 9 10 10 10 10 10 10 10
9 9 9 9 9 9 9 9 9 9 9 9 9 9 9 9 9 9 9 9 9 9 9 9 9 9 9 9 9 9 9 9 9 9 9 9 9 9 9 9 9 9 9
9 9 9 9 9 9 9 9 9 9 9 9 9 9 9 9 9 9 9 9 9 9 9 9 9 9 9 9 9 9 9 9 9 9 9 9 9 9 9 9 9 9 9
9 9 9 8 8 8 8 8 8 9 9 9 9 8 8 8 8 8 8 8 8 8 8 8 8 8 8 8 8 8 8 9 9 9 9 9 9 9 9 9 9 9 9
8 8 8 8 8 8 8 8 8 8 8 8 8 8 8 8 8 8 8 8 8 8 8 8 8 8 8 8 8 8 8 8 8 8 8 8 9 9 9 9 9 9 9
8 8 8 8 8 7 7 8 8 8 8 8 8 7 7 7 7 7 8 8 8 8 8 8 8 8 8 8 8 8 8 8 8 8 8 8 8 8 9 9 9 9 9
7 7 7 8 7 7 7 7 7 7 7 7 7 7 7 7 7 7 7 7 7 7 7 7 7 7 7 7 8 7 7 7 7 7 7 7 8 8 8 8 9 9 9
Wind_Speed
2 2 3 4 4 4 4 3 4 4 4 5 5 6 5 6 7 7 7 10 10 8 6 6 5 5 5 5 5 5 5 5 5 5 5 6 7 7 8 7 7 7 7
2 2 2 3 3 3 3 3 3 3 3 3 4 5 5 6 6 7 7 8 10 9 8 6 6 6 5 5 5 5 5 5 4 4 5 6 7 7 7 7 7 7 7
3 3 2 2 2 3 4 4 4 4 3 4 4 4 4 5 5 6 7 7 8 9 9 8 7 6 5 5 5 5 5 4 4 4 6 7 8 7 8 7 7 6 6
3 3 2 1 2 3 3 2 2 3 3 3 3 3 4 4 5 5 6 6 7 6 8 8 7 7 6 5 5 5 5 5 5 5 7 8 8 8 8 8 7 7 6
3 3 2 2 3 3 2 2 2 2 2 3 2 3 3 3 4 5 5 6 6 6 6 8 8 8 7 6 5 5 4 5 6 6 7 8 8 8 7 8 7 6 6
3 3 2 2 3 3 2 2 3 3 2 2 3 3 3 3 3 4 4 5 6 6 6 7 7 7 8 7 6 4 4 4 5 6 7 7 8 7 7 7 7 6 6
3 3 2 2 2 2 2 3 2 3 2 2 3 3 3 3 3 3 4 4 5 6 6 7 7 6 6 7 6 5 4 4 4 5 6 7 7 7 7 7 6 6 6
4 4 3 2 2 2 3 2 2 2 1 2 2 2 2 4 4 4 3 3 4 5 6 6 7 6 6 5 5 5 5 4 4 4 5 6 6 7 7 6 7 7 6
4 4 3 3 2 2 2 2 2 2 1 1 1 2 2 1 2 3 3 3 4 4 4 5 6 6 6 6 5 5 5 4 4 3 5 5 6 6 6 6 6 6 6
4 4 4 3 2 2 2 1 2 2 3 1 1 1 1 2 1 1 3 3 4 4 4 4 5 5 6 6 6 5 5 4 4 3 4 5 5 6 5 5 5 6 5
4 4 3 3 2 1 1 1 1 2 2 2 1 1 1 2 2 1 1 3 3 3 3 3 4 4 6 6 5 6 5 5 4 4 3 4 4 5 5 5 5 5 5
2 3 2 2 1 1 1 1 2 2 1 2 2 2 2 2 1 1 1 1 2 2 3 3 3 4 4 5 5 6 5 4 4 3 3 3 4 4 4 4 5 5 5
1 1 1 1 1 0 1 2 2 2 2 2 2 1 1 2 2 2 2 1 1 2 2 2 3 3 4 5 5 6 5 4 4 3 3 3 3 3 3 3 4 4 4
1 1 1 1 1 1 1 2 1 1 1 1 1 2 1 1 2 2 2 2 1 1 1 2 2 3 3 4 4 5 4 4 4 4 4 3 3 3 2 2 3 3 3
1 1 1 0 1 1 1 1 1 1 1 1 1 2 1 1 1 2 2 3 3 1 1 2 2 2 3 3 4 4 3 3 3 4 4 3 3 2 2 2 2 3 3
1 1 1 1 0 0 1 1 0 1 1 1 1 1 1 1 1 1 2 2 2 3 2 2 1 2 2 3 3 3 3 3 2 2 2 2 2 2 1 2 2 2 3
1 1 1 1 1 1 0 1 1 1 1 1 1 1 1 1 1 1 1 1 2 2 2 2 1 1 1 2 2 2 2 2 1 0 1 1 1 1 1 1 2 3 3
1 1 1 1 1 1 1 1 1 1 2 2 2 1 1 1 1 1 1 2 2 2 3 2 1 1 1 1 1 1 1 1 0 1 1 2 2 1 2 2 2 3 4
1 1 1 1 2 2 2 2 2 2 3 3 3 3 3 2 2 2 2 2 2 1 2 2 1 1 1 1 1 1 1 1 1 1 2 3 3 2 3 3 3 2 3
1 1 1 2 2 2 2 2 2 2 3 3 3 3 3 4 4 3 3 3 2 1 1 1 1 1 1 1 0 1 1 1 1 1 2 2 3 3 3 3 3 3 3
2 1 1 1 2 2 2 1 2 2 2 2 2 2 3 3 3 3 2 3 3 2 2 2 2 1 1 1 2 1 1 1 1 1 1 1 1 2 3 4 5 5 5
2 1 1 1 2 2 3 2 1 1 2 2 2 2 2 2 3 3 4 4 4 4 4 3 2 3 3 3 2 2 1 0 1 1 1 2 1 2 3 4 6 6 6
1 1 1 1 2 3 3 2 1 0 1 2 2 2 2 2 1 2 2 3 3 4 5 4 4 5 4 4 4 3 3 2 3 2 1 2 1 3 4 5 6 7 8
1 1 1 2 2 3 4 3 2 1 0 1 2 3 3 2 2 2 1 1 2 2 3 3 4 5 5 5 5 4 4 1 1 1 1 1 2 2 3 4 6 7 7
1 1 1 1 2 4 4 3 2 1 1 2 2 2 3 3 3 2 2 2 1 2 2 2 3 3 3 4 4 3 2 1 1 2 1 1 1 2 2 3 5 6 6
2 1 1 1 2 3 4 3 1 0 1 2 2 1 2 3 3 3 3 3 3 3 2 2 2 2 2 3 5 5 4 3 2 2 2 2 1 0 1 2 2 3 4
Wind_Direction
80 64 55 47 47 55 61 57 59 53 49 47 52 57 49 45 41 34 28 33 35 39 46 53 57 59 59 60 61 61 62 73 84 96 110 119 119 115 112 109 105 103 106
97 82 67 55 50 58 70 76 72 64 51 53 47 49 46 45 41 34 33 29 31 33 36 40 44 47 48 51 51 52 54 68 72 89 111 122 123 120 116 111 107 105 104
110 101 89 68 51 63 79 80 72 66 60 54 45 40 45 42 42 36 36 34 29 30 32 34 38 39 36 38 42 48 50 57 63 89 109 120 121 120 117 113 110 106 105
109 101 99 87 76 79 85 86 76 68 59 54 45 33 35 37 38 36 37 34 30 25 23 28 32 33 31 31 37 42 50 56 67 95 110 116 117 117 113 113 111 105 103
106 105 104 95 97 89 83 92 75 88 85 67 57 41 28 27 23 34 36 34 29 25 20 20 23 23 22 24 30 36 49 63 73 95 110 117 121 120 116 115 112 107 105
93 97 96 88 98 94 73 70 78 69 84 78 68 46 25 19 26 28 28 34 30 26 23 22 20 15 17 20 23 30 49 74 83 99 114 119 124 124 121 121 116 112 109
90 95 92 87 92 103 108 99 90 80 58 58 67 35 17 25 31 25 26 35 30 26 28 28 24 19 15 16 24 29 43 67 85 98 115 121 127 128 126 127 123 119 112
77 91 90 96 101 102 95 92 97 88 60 54 93 79 14 0 10 20 19 28 21 29 29 27 28 23 17 16 22 33 40 53 81 102 119 125 132 133 126 127 122 118 111
68 75 90 99 95 108 125 118 115 119 129 30 64 118 126 242 323 352 13 24 19 24 17 22 25 20 19 21 19 26 37 49 69 101 119 125 133 133 127 132 128 120 114
60 69 84 95 99 99 117 136 107 116 137 152 41 46 111 151 145 338 345 360 13 19 8 14 18 24 27 26 22 23 31 43 59 85 124 130 133 133 134 136 133 125 121
43 54 73 86 96 103 126 114 93 96 127 150 149 116 76 56 76 144 298 339 355 358 359 8 22 26 25 25 23 26 32 42 57 71 109 137 137 138 145 145 138 129 125
27 34 64 69 82 97 128 145 138 125 135 133 131 125 131 136 154 151 202 291 327 330 349 7 15 19 18 19 19 23 31 41 52 67 95 117 131 128 132 145 138 135 133
12 348 43 53 47 77 121 116 129 133 144 145 155 161 156 162 153 157 160 203 297 316 336 360 358 9 13 17 13 18 28 38 55 68 91 109 111 110 119 138 149 148 147
281 301 60 75 50 67 97 110 133 150 145 161 164 158 164 189 164 163 168 166 162 335 349 321 337 7 6 8 5 17 26 37 60 69 79 94 113 119 120 133 155 156 156
336 16 23 34 32 51 80 102 124 158 159 181 189 176 177 203 184 190 182 173 167 196 274 299 318 347 351 359 6 26 32 40 61 68 81 93 113 134 154 163 160 162 162
351 359 348 330 298 21 71 121 134 183 143 197 192 174 200 212 198 193 192 188 177 179 218 263 272 310 345 357 5 24 25 30 54 73 88 106 117 124 156 185 190 185 175
354 341 308 292 275 262 218 152 199 187 171 221 221 184 227 214 204 208 186 174 178 168 202 273 301 324 345 343 352 9 13 13 27 94 150 140 135 150 155 199 215 210 193
320 305 309 283 260 260 230 202 217 217 205 217 226 200 231 220 215 212 191 198 200 193 190 232 287 313 304 297 323 339 2 3 326 222 205 200 194 204 215 215 219 217 206
316 329 332 292 273 257 243 233 220 223 221 225 221 208 221 199 223 227 208 209 214 208 194 199 253 287 310 313 341 320 354 360 318 251 233 237 227 218 219 221 219 220 220
305 299 294 286 281 266 245 244 231 227 230 231 230 223 218 208 215 218 218 216 202 185 173 186 232 270 284 273 207 248 317 337 317 327 294 267 249 232 222 221 227 229 231
319 302 292 311 310 275 247 227 234 225 213 217 238 238 229 224 229 223 223 205 187 185 184 194 215 230 239 232 233 224 242 302 308 311 316 296 282 266 252 238 232 232 230
339 344 333 310 308 308 315 306 261 209 194 195 223 248 247 240 259 259 247 223 197 190 198 201 215 223 232 225 213 199 195 186 272 274 239 283 260 258 259 247 244 238 233
335 338 328 324 306 305 323 335 352 98 195 204 211 230 248 255 256 255 259 253 240 227 203 196 208 224 221 216 196 201 207 215 230 239 195 267 267 260 266 258 252 240 233
265 285 304 305 304 312 330 333 337 33 241 242 231 222 226 238 228 207 209 255 263 256 237 222 220 227 225 202 195 204 207 209 300 292 175 236 270 269 290 270 254 237 232
262 269 289 303 302 307 326 338 9 351 313 293 275 245 229 230 233 193 170 203 263 285 280 253 253 243 228 199 171 148 147 153 249 258 211 200 253 278 287 274 260 243 234
245 252 292 294 288 294 314 332 356 242 298 301 309 290 261 253 236 192 185 194 228 256 265 281 303 301 253 206 188 186 186 191 212 238 216 194 226 233 288 281 273 261 247
Height
1530 1530 1530 1530 1530 1530 1530 1531 1531 1531 1531 1531 1531 1532 1532 1532 1532 1532 1532 1531 1531 1531 1531 1530 1530 1530 1529 1529 1528 1528 1527 1526 1525 1524 1524 1525 1527 1529 1531 1533 1534 1535 1536
1530 1530 1530 1530 1531 1531 1531 1531 1531 1532 1532 1532 1532 1532 1532 1532 1532 1532 1532 1532 1532 1531 1531 1531 1531 1530 1530 1529 1528 1527 1526 1525 1523 1522 1522 1523 1525 1528 1531 1532 1534 1535 1536
1531 1531 1531 1531 1531 1531 1532 1532 1532 1532 1532 1532 1532 1532 1532 1532 1533 1532 1532 1532 1532 1532 1531 1531 1531 1530 1530 1529 1528 1527 1526 1524 1521 1520 1520 1521 1524 1528 1530 1532 1534 1535 1536
1531 1531 1531 1531 1531 1532 1532 1532 1532 1532 1533 1533 1532 1532 1532 1532 1533 1533 1532 1532 1532 1532 1531 1531 1531 1530 1530 1529 1528 1527 1526 1523 1521 1520 1520 1522 1525 1528 1530 1532 1534 1535 1536
1531 1531 1531 1531 1531 1532 1532 1532 1532 1532 1532 1533 1532 1533 1533 1532 1532 1532 1532 1532 1532 1532 1531 1531 1531 1530 1530 1529 1528 1527 1526 1524 1523 1522 1522 1524 1526 1529 1531 1532 1534 1535 1536
1531 1531 1531 1531 1531 1531 1532 1532 1532 1532 1532 1532 1532 1532 1532 1532 1532 1532 1532 1532 1532 1532 1531 1531 1530 1530 1530 1529 1528 1528 1527 1525 1525 1524 1525 1526 1527 1529 1531 1533 1534 1535 1536
1530 1530 1530 1530 1530 1531 1531 1531 1532 1532 1532 1532 1532 1532 1532 1532 1532 1532 1532 1532 1532 1532 1531 1531 1530 1530 1529 1529 1528 1528 1527 1526 1526 1526 1526 1527 1528 1530 1531 1533 1534 1535 1536
1530 1530 1530 1530 1530 1530 1530 1531 1531 1531 1531 1532 1532 1531 1532 1533 1532 1532 1532 1532 1532 1531 1531 1531 1530 1530 1529 1529 1529 1528 1527 1527 1527 1527 1527 1528 1529 1531 1532 1533 1534 1535 1536
1529 1529 1529 1529 1530 1530 1530 1530 1530 1530 1530 1531 1531 1532 1532 1531 1532 1532 1532 1531 1531 1531 1530 1530 1530 1530 1529 1529 1529 1528 1528 1527 1527 1528 1528 1529 1530 1531 1532 1533 1534 1535 1536
1528 1528 1528 1528 1529 1529 1529 1529 1529 1530 1530 1530 1530 1531 1532 1531 1531 1531 1532 1531 1531 1530 1530 1529 1529 1529 1529 1528 1528 1528 1528 1527 1527 1527 1528 1529 1529 1530 1531 1532 1534 1534 1535
1527 1527 1527 1527 1528 1528 1528 1528 1528 1528 1529 1529 1529 1529 1530 1530 1530 1530 1530 1531 1530 1530 1529 1529 1528 1528 1528 1528 1528 1528 1527 1527 1527 1527 1527 1528 1529 1530 1531 1532 1533 1533 1534
1526 1526 1526 1526 1527 1527 1527 1527 1527 1527 1527 1528 1528 1528 1529 1529 1529 1529 1529 1529 1529 1529 1529 1528 1528 1527 1527 1527 1527 1527 1527 1527 1527 1526 1527 1527 1528 1529 1530 1531 1531 1532 1533
1525 1525 1525 1525 1525 1526 1526 1526 1526 1526 1526 1526 1527 1527 1528 1528 1528 1528 1528 1528 1528 1528 1528 1527 1527 1526 1526 1526 1526 1526 1526 1526 1526 1526 1526 1527 1527 1528 1529 1529 1530 1531 1533
1524 1524 1524 1524 1524 1524 1524 1524 1524 1525 1525 1525 1526 1526 1526 1527 1527 1527 1527 1527 1526 1527 1526 1526 1526 1526 1526 1525 1525 1525 1525 1525 1525 1525 1525 1526 1526 1527 1528 1529 1530 1531 1531
1522 1523 1523 1523 1523 1523 1523 1523 1523 1523 1523 1524 1524 1524 1525 1525 1526 1526 1526 1526 1526 1525 1525 1525 1525 1525 1525 1524 1524 1524 1524 1524 1524 1524 1524 1525 1525 1526 1527 1528 1529 1530 1531
1521 1521 1521 1521 1521 1521 1521 1521 1521 1521 1522 1522 1522 1523 1523 1523 1524 1524 1524 1524 1524 1524 1524 1523 1524 1524 1524 1523 1523 1523 1523 1523 1523 1523 1523 1523 1524 1525 1526 1526 1527 1528 1529
1519 1519 1519 1519 1519 1519 1519 1519 1519 1519 1520 1520 1520 1520 1521 1521 1522 1522 1522 1522 1522 1523 1522 1522 1522 1522 1522 1522 1521 1522 1521 1521 1521 1522 1522 1522 1523 1523 1524 1525 1525 1526 1527
1517 1517 1517 1517 1517 1517 1517 1517 1517 1517 1517 1517 1517 1518 1518 1519 1519 1520 1520 1520 1520 1520 1520 1520 1520 1520 1520 1520 1520 1520 1520 1520 1520 1520 1521 1521 1521 1522 1522 1522 1523 1524 1525
1515 1515 1515 1514 1514 1514 1514 1514 1514 1514 1514 1514 1515 1515 1515 1516 1516 1517 1517 1517 1518 1518 1518 1518 1518 1518 1518 1518 1518 1518 1518 1518 1518 1518 1519 1519 1519 1520 1520 1521 1521 1521 1522
1513 1513 1512 1512 1512 1512 1512 1512 1511 1511 1511 1511 1512 1512 1513 1513 1513 1514 1514 1514 1515 1515 1515 1515 1515 1515 1516 1516 1516 1516 1516 1516 1516 1516 1517 1517 1517 1517 1518 1519 1519 1519 1519
1511 1510 1510 1509 1509 1509 1509 1508 1508 1507 1507 1508 1508 1509 1509 1510 1510 1511 1511 1511 1512 1512 1512 1512 1512 1512 1513 1513 1513 1513 1513 1513 1514 1514 1514 1514 1515 1515 1516 1516 1516 1517 1517
1508 1508 1507 1507 1506 1506 1506 1505 1505 1504 1504 1504 1505 1505 1506 1506 1507 1507 1508 1508 1509 1509 1509 1509 1509 1509 1509 1510 1511 1511 1511 1510 1510 1512 1511 1512 1512 1512 1513 1513 1514 1514 1514
1506 1505 1505 1504 1503 1503 1503 1502 1502 1501 1501 1501 1501 1502 1502 1503 1503 1504 1504 1504 1505 1505 1506 1506 1505 1506 1506 1507 1507 1507 1508 1508 1508 1508 1509 1508 1509 1509 1510 1510 1511 1511 1511
1503 1502 1502 1501 1501 1500 1500 1499 1499 1498 1498 1498 1498 1499 1499 1500 1500 1500 1501 1501 1501 1501 1501 1502 1502 1502 1503 1503 1504 1504 1504 1505 1505 1505 1506 1505 1505 1506 1506 1507 1507 1508 1508
1500 1499 1499 1498 1498 1497 1497 1497 1496 1495 1495 1495 1495 1495 1496 1496 1497 1497 1497 1497 1497 1497 1498 1498 1498 1498 1499 1500 1500 1501 1501 1501 1501 1502 1503 1502 1502 1502 1503 1503 1504 1504 1505
1496 1496 1495 1495 1495 1494 1494 1493 1493 1492 1492 1492 1492 1492 1493 1493 1494 1494 1494 1494 1493 1494 1494 1494 1495 1495 1495 1496 1496 1496 1497 1497 1497 1498 1499 1499 1499 1500 1499 1499 1500 1501 1501